Location: Stuttgart
(48.8069°N, 9.1544°E)
Time: 03:15:36
(UTC+02:00)

ISS - Visible Passes

Search period start: 25 May 2017 00:00
Search period end: 04 June 2017 00:00
Orbit: 402 x 409 km, 51.6° (Epoch: 25 May)

Date Brightness Start Highest point End Pass type
(mag) Time Alt. Az. Time Alt. Az. Time Alt. Az.
25 May -2.9 01:05:55 10° W 01:09:09 50° N 01:12:22 10° ENE visible
25 May -3.6 02:42:37 10° WNW 02:45:55 70° NNE 02:49:10 10° E visible
25 May -3.1 04:19:18 10° W 04:22:14 31° SW 04:25:10 10° SSE visible
25 May -3.7 22:37:19 10° SW 22:40:31 50° SSE 22:43:44 10° ENE visible
26 May -3.1 00:13:47 10° W 00:17:02 56° N 00:20:18 10° ENE visible
26 May -3.2 01:50:33 10° WNW 01:53:49 56° N 01:57:04 10° E visible
26 May -3.7 03:27:08 10° WNW 03:30:19 49° SSW 03:33:29 10° SE visible
26 May -3.5 23:21:39 10° W 23:24:56 70° NNW 23:28:14 10° ENE visible
27 May -2.9 00:58:28 10° WNW 01:01:42 50° N 01:04:55 10° E visible
27 May -4.0 02:35:02 10° WNW 02:38:20 75° SSW 02:41:36 10° ESE visible
27 May -2.2 04:12:16 10° W 04:14:24 16° SW 04:16:30 10° S visible
27 May -3.9 22:29:34 10° WSW 22:32:52 87° SSE 22:36:10 10° ENE visible
28 May -2.9 00:06:20 10° WNW 00:09:33 49° N 00:12:46 10° ENE visible
28 May -3.8 01:42:58 10° WNW 01:46:16 78° NNE 01:47:25 37° E visible
28 May -1.4 03:19:44 10° W 03:19:57 11° W 03:19:57 11° W visible
28 May -3.0 23:14:09 10° W 23:17:24 53° N 23:20:38 10° ENE visible
29 May -3.3 00:50:53 10° WNW 00:54:10 60° NNE 00:56:00 23° E visible
29 May -1.9 02:27:29 10° WNW 02:28:36 19° W 02:28:36 19° W visible
29 May -3.3 22:21:57 10° W 22:25:15 63° NNW 22:28:32 10° ENE visible
29 May -3.0 23:58:46 10° WNW 00:02:01 52° N 00:05:06 11° E visible
30 May -3.1 01:35:20 10° WNW 01:37:43 42° W 01:37:43 42° W visible
30 May -2.9 23:06:36 10° WNW 23:09:50 49° N 23:13:03 10° ENE visible
31 May -3.9 00:43:12 10° WNW 00:46:31 87° NNE 00:47:00 62° ESE visible
31 May -2.9 22:14:24 10° W 22:17:38 51° N 22:20:52 10° ENE visible
31 May -3.5 23:51:05 10° WNW 23:54:23 66° NNE 23:56:23 21° E visible
01 Jun -1.9 01:27:44 10° W 01:29:01 20° W 01:29:01 20° W visible
01 Jun -3.1 22:58:57 10° WNW 23:02:12 54° N 23:05:27 10° E visible
02 Jun -3.6 00:35:30 10° WNW 00:38:28 52° SW 00:38:28 52° SW visible
02 Jun -2.9 22:06:46 10° WNW 22:10:00 49° N 22:13:13 10° E visible
02 Jun -3.9 23:43:20 10° WNW 23:46:39 82° SSW 23:47:56 34° ESE visible
03 Jun -1.1 01:20:25 10° W 01:20:35 11° W 01:20:35 11° W visible
03 Jun -3.6 22:51:12 10° WNW 22:54:30 73° NNE 22:57:28 12° ESE visible
